IRIDIUM 145

Last updated on Sun Jun 21 2026 00:03:14 GMT+0000 (Coordinated Universal Time)

1 43253U 18030E 26171.40189132 .00000063 00000+0 15440-4 0 9990 2 43253 86.3962 289.0607 0002064 102.1429 257.9998 14.34217854430584
UTC large
Height (km)
Speed (km/s)
/
Latitude / Longitude
Inclination (degrees)
Orbital Period (minutes)
Azimuth
Elevation
Range (km)
Doppler Factor

Next 0 passes for location: London (51.5072 / 0.1276)

No passes found over London.
IRIDIUM 145